Seward, AK

3:42 AM AKDT on April 29, 2017 (GMT -0800)
Seward

Weather History for PAWD - September, 2013

Change the Weather History Date:

Thursday, September 19, 2013

  Actual Average Record
Temperature  
Mean Temperature 50 °F -  
Max Temperature 55 °F 53 °F 66 °F (1959)
Min Temperature 44 °F 43 °F 30 °F (2000)
Degree Days  
Heating Degree Days 16    
Moisture  
Dew Point 38 °F    
Average Humidity 70    
Maximum Humidity 100    
Minimum Humidity 42    
Precipitation  
Precipitation 0.03 in - - ()
Sea Level Pressure  
Sea Level Pressure 29.47 in    
Wind  
Wind Speed 6 mph (NNW)    
Max Wind Speed 20 mph    
Max Gust Speed 39 mph    
Visibility 10 miles    
Events Rain    
Averages and records for this station are not official NWS values.
T = Trace of Precipitation, MM = Missing Value Source: NWS Daily Summary

Daily Weather History Graph

Daily Weather History Graph

Search for Another Location

Airport or City:

Trip Planner

Search our weather history database for the weather conditions in past years. The results will help you decide how hot, cold, wet, or windy it might be!

Date:

Astronomy

Sep. 19, 2013 Rise Set
Actual Time 7:35 AM AKDT 8:05 PM AKDT
Civil Twilight 6:53 AM AKDT 8:47 PM AKDT
Nautical Twilight 6:02 AM AKDT 9:37 PM AKDT
Astronomical Twilight 5:06 AM AKDT 10:33 PM AKDT
Moon 7:45 PM AKDT (9/19) 8:12 AM AKDT (9/19)
Length of Visible Light 13h 53m
Length of Day
12h 29m
Full, 100% of the Moon is Illuminated
Sep 19
Full
Sep 26
Last Quarter
Oct 4
New
Oct 11
First Quarter
Oct 18
Full

Hourly Weather History & Observations

Time (AKDT) Temp. Windchill Dew Point Humidity Pressure Visibility Wind Dir Wind Speed Gust Speed Precip Events Conditions
12:00 AM 46.4 °F - 44.6 °F 93% 29.59 in 10.0 mi Calm Calm - N/A   Overcast
12:30 AM 46.4 °F - 46.4 °F 100% 29.58 in 10.0 mi Calm Calm - N/A   Overcast
12:53 AM 46.9 °F - 45.0 °F 93% 29.58 in 8.0 mi NNW 3.5 mph - 0.02 in Rain Light Rain
1:53 AM 46.0 °F 43.1 °F 44.1 °F 93% 29.58 in 10.0 mi North 5.8 mph - 0.01 in   Overcast
2:53 AM 46.9 °F - 44.1 °F 90% 29.56 in 10.0 mi North 4.6 mph - N/A   Overcast
3:53 AM 46.0 °F 43.9 °F 43.0 °F 89% 29.54 in 10.0 mi North 4.6 mph - N/A   Overcast
4:45 AM 44.6 °F - 42.8 °F 93% 29.53 in 10.0 mi Calm Calm - N/A   Overcast
4:53 AM 44.1 °F - 43.0 °F 96% 29.53 in 10.0 mi Calm Calm - N/A   Overcast
5:53 AM 44.1 °F 41.5 °F 42.1 °F 93% 29.52 in 10.0 mi North 4.6 mph - N/A   Overcast
6:53 AM 44.1 °F 41.5 °F 42.1 °F 93% 29.51 in 10.0 mi North 4.6 mph - N/A   Mostly Cloudy
7:53 AM 46.0 °F 41.9 °F 43.0 °F 89% 29.50 in 10.0 mi NNE 8.1 mph - N/A   Overcast
8:53 AM 46.9 °F - 43.0 °F 86% 29.49 in 10.0 mi North 6.9 mph - N/A   Overcast
9:53 AM 48.9 °F - 43.0 °F 80% 29.49 in 10.0 mi NNE 10.4 mph - N/A   Overcast
10:53 AM 52.0 °F - 41.0 °F 66% 29.48 in 10.0 mi NNE 11.5 mph 19.6 mph N/A   Overcast
11:53 AM 53.1 °F - 39.0 °F 59% 29.47 in 10.0 mi NNW 15.0 mph 21.9 mph N/A   Overcast
12:53 PM 52.0 °F - 37.0 °F 57% 29.45 in 10.0 mi NNW 10.4 mph 20.7 mph 0.00 in Rain Light Rain
1:53 PM 55.0 °F - 37.0 °F 51% 29.44 in 10.0 mi North 10.4 mph 23.0 mph 0.00 in   Mostly Cloudy
2:53 PM 53.1 °F - 36.0 °F 52% 29.43 in 10.0 mi NW 16.1 mph 24.2 mph 0.00 in   Mostly Cloudy
3:53 PM 54.0 °F - 35.1 °F 49% 29.42 in 10.0 mi NW 13.8 mph 28.8 mph N/A   Mostly Cloudy
4:53 PM 53.1 °F - 35.1 °F 50% 29.40 in 10.0 mi NW 17.3 mph 29.9 mph N/A   Partly Cloudy
5:53 PM 51.1 °F - 34.0 °F 52% 29.40 in 10.0 mi WNW 11.5 mph 21.9 mph N/A   Scattered Clouds
6:53 PM 48.9 °F - 30.0 °F 48% 29.38 in 10.0 mi WNW 18.4 mph 35.7 mph N/A   Clear
7:53 PM 48.0 °F - 26.1 °F 42% 29.37 in 10.0 mi NW 18.4 mph 39.1 mph N/A   Clear
8:53 PM 46.9 °F - 25.0 °F 42% 29.36 in 10.0 mi NNW 17.3 mph 36.8 mph N/A   Clear
9:53 PM 46.0 °F 41.0 °F 25.0 °F 44% 29.35 in 10.0 mi North 10.4 mph 28.8 mph N/A   Clear
10:53 PM 46.0 °F 39.6 °F 25.0 °F 44% 29.34 in 10.0 mi North 15.0 mph 35.7 mph N/A   Clear
11:53 PM 46.0 °F 38.5 °F 26.1 °F 46% 29.33 in 10.0 mi NNW 19.6 mph 35.7 mph N/A   Clear